ATLAS 5 CENTAUR R/B, 41867

Orbit data source: Space-Track

ATLAS 5 CENTAUR R/B, 41867 is space debris in HEO originally from a launch on Sat, 19 Nov 2016 UTC launched from the Air Force Eastern Test Range (AFETR). Debris objects in space refer to the collection of defunct objects orbiting the Earth. Examples of debris include non-operational satellites, rocket bodies, and fragments generated from explosions, collisions, or faulty payload assembly.

Loading next visibility...
Identifier
41867, 2016-071B
Orbit
HEO
Country
Flag of USUS
Related business
Flag of USUnited Launch Alliance/Lockheed Martin (US)
Manufacturer
ULA Decatur
Mission
Spacecraft
Bus & Motor
CENTAUR SEC, RL10C-1
Mass
~2,020 kg wet, 2,020 kg dry
Launch date (UTC)
2016-11-19 (10 years ago)
Launch vehicle
Unknown
Launch site
Air Force Eastern Test Range (AFETR)
Object type
Payload
Rocket body
Debris
Shape & HBR
Cyl + 1 Nozzle, 6.1 m
Radar Cross Section
32.260 m², Large (>1 m²)

Expand to show TLE details & history
Last TLE update: 13 hours ago

TLE from 13 hours ago
0 ATLAS 5 CENTAUR R/B
1 41867U 16071B   26255.57171768 -.00000103  00000-0  00000-0 0  9998
2 41867  10.6202 243.9375 4966789 185.3757 166.0451  1.89346381 67871
Epoch: 2026-09-12T13:43Z
TLE epoch observation values (Epoch: 2026-09-12T13:43:16.407Z)
Latitude
-0°
Longitude
46.464°
Altitude
34,717.57 km
Speed
2.226 km/s
True Right ascension
16h 15m 26s
True Declination
0° 00' 00"
Sunlit
Object was in daylight at epoch
Visualization orbit readout
Latitude
Unknown
Longitude
Unknown
Altitude
Unknown
Speed
Unknown
Apparent Right ascension
Unknown
Apparent Declination
Unknown
Sunlit
N/A
Visualization observer readout
Local Sidereal Time
19:33:12
Azimuth
Unknown
Elevation
Unknown
Doppler factor
Unknown
Orbital elements
Apogee altitude
34,932.56 km
Perigee altitude
7,514.319 km
Semi-major axis
27,601.576 km
Eccentricity
0.49668
Inclination
10.6202°
RAAN
243.9375°
Arg. of periapsis
185.3757°
True anomaly
174.57709°
Mean anomaly
166.0451°
Eccentric anomaly
170.66239°
Mean motion
0.47331 °/min
Orbital period
760.61 mins
BSTAR
0
Loading maneuver chart data...
Computing Atmospheric mass density...
Loading historical data...
Loading historical data...
Loading historical data...
Loading historical data...
Loading historical data...
Loading historical data...
Loading historical data...
Other satellites on launch #71 in the year 2016 (2016-11-19 UTC)

Documentation

Showing up to 5 results
|